Melbourne Airport, Australia

4:32 PM AEDT on March 24, 2017 (GMT +1100)
Melbourne International

Weather History for YMML - May, 2013

Change the Weather History Date:

Sunday, May 26, 2013

  Actual Average Record
Temperature  
Mean Temperature 52 °F -  
Max Temperature 59 °F 56 °F 66 °F (2014)
Min Temperature 46 °F 42 °F 39 °F (2006)
Degree Days  
Heating Degree Days 12    
Growing Degree Days 2 (Base 50)    
Moisture  
Dew Point 46 °F    
Average Humidity 71    
Maximum Humidity 87    
Minimum Humidity 43    
Precipitation  
Precipitation 0.00 in 0.05 in - ()
Sea Level Pressure  
Sea Level Pressure 30.34 in    
Wind  
Wind Speed 8 mph ()    
Max Wind Speed 14 mph    
Max Gust Speed -    
Visibility 7.8 miles    
Events Rain    
Averages and records for this station are not official NWS values.
T = Trace of Precipitation, MM = Missing Value Source: Averaged Metar Reports

Daily Weather History Graph

Daily Weather History Graph

Search for Another Location

Airport or City:

Trip Planner

Search our weather history database for the weather conditions in past years. The results will help you decide how hot, cold, wet, or windy it might be!

Date:

Astronomy

May. 26, 2013 Rise Set
Actual Time 7:22 AM AEST 5:12 PM AEST
Civil Twilight 6:53 AM AEST 5:41 PM AEST
Nautical Twilight 6:21 AM AEST 6:13 PM AEST
Astronomical Twilight 5:49 AM AEST 6:45 PM AEST
Moon 6:24 PM AEST (5/26) 8:08 AM AEST (5/26)
Length of Visible Light 10h 47m
Length of Day
9h 50m
Full, 99% of the Moon is Illuminated
May 26
Full
Jun 1
Last Quarter
Jun 9
New
Jun 17
First Quarter
Jun 23
Full

Hourly Weather History & Observations

Time (AEST) Temp. Windchill Dew Point Humidity Pressure Visibility Wind Dir Wind Speed Gust Speed Precip Events Conditions
12:00 AM 49 °F - 43 °F 74% 30.32 in 19 mi NNW 8.1 mph - -   Partly Cloudy
12:00 AM 48.2 °F - 42.8 °F 82% 30.30 in 6.2 mi NNW 8.1 mph - N/A   Partly Cloudy
12:30 AM 46.4 °F 42.4 °F 42.8 °F 87% 30.30 in 6.2 mi North 8.1 mph - N/A   Partly Cloudy
1:00 AM 48 °F - 44 °F 80% 30.31 in - NNW 10.4 mph - -  
1:00 AM 48.2 °F - 44.6 °F 87% 30.30 in 6.2 mi NNW 10.4 mph - N/A   Partly Cloudy
1:30 AM 50.0 °F - 44.6 °F 82% 30.30 in 6.2 mi NW 8.1 mph - N/A   Partly Cloudy
2:00 AM 50.0 °F - 44.6 °F 82% 30.30 in 6.2 mi NW 9.2 mph - N/A   Mostly Cloudy
2:30 AM 51.8 °F - 44.6 °F 76% 30.30 in 6.2 mi NW 9.2 mph - N/A   Mostly Cloudy
3:00 AM 51 °F - 46 °F 76% 30.31 in 19 mi WNW 10.4 mph - -   Partly Cloudy
3:00 AM 51.8 °F - 46.4 °F 82% 30.30 in 6.2 mi WNW 10.4 mph - N/A   Mostly Cloudy
3:30 AM 51.8 °F - 46.4 °F 82% 30.30 in 6.2 mi NW 9.2 mph - N/A   Mostly Cloudy
4:00 AM 52 °F - 46 °F 73% 30.31 in - NW 9.2 mph - -  
4:00 AM 51.8 °F - 46.4 °F 82% 30.30 in 6.2 mi NW 9.2 mph - N/A   Mostly Cloudy
4:30 AM 51.8 °F - 44.6 °F 76% 30.30 in 6.2 mi WNW 10.4 mph - N/A   Mostly Cloudy
5:00 AM 51.8 °F - 46.4 °F 82% 30.30 in 6.2 mi WNW 9.2 mph - N/A   Mostly Cloudy
5:30 AM 51.8 °F - 46.4 °F 82% 30.30 in 6.2 mi WNW 9.2 mph - N/A   Mostly Cloudy
6:00 AM 53 °F - 46 °F 71% 30.32 in 19 mi WNW 8.1 mph - -   Partly Cloudy
6:00 AM 53.6 °F - 46.4 °F 77% 30.30 in 6.2 mi WNW 8.1 mph - N/A   Mostly Cloudy
6:30 AM 53.6 °F - 46.4 °F 77% 30.30 in 6.2 mi West 8.1 mph - N/A   Mostly Cloudy
7:00 AM 54 °F - 47 °F 68% 30.34 in - WSW 6.9 mph - -  
7:00 AM 53.6 °F - 46.4 °F 77% 30.33 in 6.2 mi WSW 6.9 mph - N/A   Mostly Cloudy
7:30 AM 53.6 °F - 46.4 °F 77% 30.33 in 6.2 mi West 8.1 mph - N/A   Mostly Cloudy
8:00 AM 53.6 °F - 46.4 °F 77% 30.36 in 6.2 mi WNW 8.1 mph - N/A   Mostly Cloudy
8:30 AM 53.6 °F - 46.4 °F 77% 30.36 in 6.2 mi WNW 9.2 mph - N/A   Mostly Cloudy
9:00 AM 55 °F - 46 °F 62% 30.38 in 19 mi WNW 11.5 mph - -   Partly Cloudy
9:00 AM 55.4 °F - 46.4 °F 72% 30.36 in 6.2 mi WNW 11.5 mph - N/A   Mostly Cloudy
9:30 AM 55.4 °F - 44.6 °F 67% 30.36 in 6.2 mi West 12.7 mph - N/A   Mostly Cloudy
10:00 AM 57 °F - 45 °F 53% 30.39 in - West 10.4 mph - -  
10:00 AM 57.2 °F - 44.6 °F 63% 30.39 in 6.2 mi West 10.4 mph - N/A   Mostly Cloudy
10:30 AM 57.2 °F - 44.6 °F 63% 30.39 in 6.2 mi West 11.5 mph - N/A   Mostly Cloudy
11:00 AM 57.2 °F - 46.4 °F 67% 30.36 in 6.2 mi WSW 10.4 mph - N/A   Mostly Cloudy
11:30 AM 57.2 °F - 46.4 °F 67% 30.36 in 6.2 mi WSW 3.5 mph - N/A   Mostly Cloudy
12:00 PM 58 °F - 46 °F 55% 30.37 in 12 mi WSW 10.4 mph - - Rain Light Rain Showers
12:00 PM 57.2 °F - 46.4 °F 67% 30.36 in 6.2 mi WSW 10.4 mph - N/A Rain Light Rain Showers
12:30 PM 57.2 °F - 48.2 °F 72% 30.36 in 6.2 mi SSW 11.5 mph - N/A   Mostly Cloudy
1:00 PM 58 °F - 47 °F 58% 30.35 in - SW 8.1 mph - -  
1:00 PM 59.0 °F - 46.4 °F 63% 30.33 in 6.2 mi SW 8.1 mph - N/A   Mostly Cloudy
1:30 PM 59.0 °F - 44.6 °F 59% 30.33 in 6.2 mi SW 11.5 mph - N/A   Light Drizzle
2:00 PM 59.0 °F - 42.8 °F 55% 30.33 in 6.2 mi SW 13.8 mph - N/A   Light Drizzle
2:30 PM 59.0 °F - 42.8 °F 55% 30.30 in 6.2 mi SW 11.5 mph - N/A   Mostly Cloudy
3:00 PM 59 °F - 43 °F 43% 30.33 in 19 mi SW 10.4 mph - -   Partly Cloudy
3:00 PM 59.0 °F - 42.8 °F 55% 30.30 in 6.2 mi SW 10.4 mph - N/A   Mostly Cloudy
3:30 PM 59.0 °F - 42.8 °F 55% 30.33 in 6.2 mi SW 11.5 mph - N/A   Mostly Cloudy
4:00 PM 58 °F - 44 °F 50% 30.34 in - SW 10.4 mph - -  
4:00 PM 59.0 °F - 44.6 °F 59% 30.33 in 6.2 mi SW 10.4 mph - N/A   Mostly Cloudy
4:30 PM 57.2 °F - 46.4 °F 67% 30.33 in 6.2 mi South 9.2 mph - N/A   Mostly Cloudy
5:00 PM 55.4 °F - 48.2 °F 77% 30.33 in 6.2 mi South 6.9 mph - N/A   Mostly Cloudy
5:30 PM 55.4 °F - 48.2 °F 77% 30.33 in 6.2 mi South 6.9 mph - N/A   Mostly Cloudy
6:00 PM 55 °F - 49 °F 73% 30.36 in 16 mi South 6.9 mph - -   Partly Cloudy
6:00 PM 55.4 °F - 48.2 °F 77% 30.33 in 6.2 mi South 6.9 mph - N/A   Mostly Cloudy
6:30 PM 53.6 °F - 48.2 °F 82% 30.36 in 6.2 mi South 4.6 mph - N/A   Mostly Cloudy
7:00 PM 53 °F - 48 °F 78% 30.38 in - SW 3.5 mph - -  
7:00 PM 53.6 °F - 48.2 °F 82% 30.36 in 6.2 mi SW 3.5 mph - N/A   Mostly Cloudy
7:30 PM 53.6 °F - 48.2 °F 82% 30.36 in 6.2 mi WSW 5.8 mph - N/A   Mostly Cloudy
8:00 PM 53.6 °F - 48.2 °F 82% 30.36 in 6.2 mi WSW 6.9 mph - N/A   Mostly Cloudy
8:30 PM 53.6 °F - 46.4 °F 77% 30.36 in 6.2 mi SSW 5.8 mph - N/A   Mostly Cloudy
9:00 PM 54 °F - 44 °F 60% 30.38 in 19 mi SSW 6.9 mph - -   Partly Cloudy
9:00 PM 53.6 °F - 44.6 °F 72% 30.36 in 6.2 mi SSW 6.9 mph - N/A   Mostly Cloudy
9:30 PM 53.6 °F - 44.6 °F 72% 30.36 in 6.2 mi SSW 5.8 mph - N/A   Mostly Cloudy
10:00 PM 53 °F - 45 °F 65% 30.38 in - SW 5.8 mph - -  
10:00 PM 53.6 °F - 44.6 °F 72% 30.36 in 6.2 mi SW 5.8 mph - N/A   Mostly Cloudy
10:30 PM 53.6 °F - 44.6 °F 72% 30.36 in 6.2 mi SW 5.8 mph - N/A   Mostly Cloudy
11:00 PM 53.6 °F - 46.4 °F 77% 30.36 in 6.2 mi WSW 8.1 mph - N/A   Mostly Cloudy
11:30 PM 53.6 °F - 46.4 °F 77% 30.36 in 6.2 mi WSW 8.1 mph - N/A   Mostly Cloudy